Location: Blairvadach
(56.2780°N, 6.9720°W)
Time: 08:35:48
(UTC+00:00)

Envisat - Pass Details

Date: 17 November 2019
Orbit: 764 x 766 km, 98.1° (Epoch: 16 December)

Event Time Altitude Azimuth Distance (km) Brightness Sun altitude
Rises 20:14:09 0° 227° (SW) 3,229 6.6 -32.4°
Reaches altitude 10° 20:18:15 10° 260° (W) 2,309 6.2 -33.0°
Maximum altitude 20:19:56 12° 280° (W) 2,206 6.2 -33.2°
Drops below altitude 10° 20:21:38 10° 299° (WNW) 2,315 6.3 -33.4°
Sets 20:25:47 0° 333° (NNW) 3,248 6.8 -34.0°
